This demonstration page uses our WeatherBlox Daily Observations layout. Learn more.

Left ArrowRight Arrow

53.62937, 11.41316

Hourly Observations for December 25, 2019

Temp ( °F °C ) Dew Point ( °F °C ) Humidity (%) Winds ( mph kmh ) Pressure ( in mb ) Visibility ( mi km ) Precip ( " mm )
12:20 am 00:20 Mostly Cloudy with Fog 39 4 37 3 93 93 N 1 2 29.71 1006 4 7 N/A
1:20 am 01:20 Mostly Cloudy with Fog 39 4 37 3 93 93 NNW 2 4 29.74 1007 4 7 N/A
2:20 am 02:20 Mostly Cloudy with Fog 39 4 37 3 93 93 NNW 2 4 29.74 1007 4 6 N/A
3:20 am 03:20 Mostly Cloudy with Fog 37 3 37 3 100 100 NW 3 6 29.77 1008 4 6 N/A
4:20 am 04:20 Mostly Cloudy with Fog 39 4 39 4 100 100 NW 6 9 29.77 1008 4 6 N/A
5:20 am 05:20 Mostly Cloudy with Fog 39 4 39 4 100 100 WNW 5 7 29.80 1009 4 6 N/A
6:20 am 06:20 Mostly Cloudy with Light Rain 39 4 37 3 93 93 WNW 5 7 29.80 1009 4 6 N/A
7:20 am 07:20 Mostly Cloudy with Mist and Fog 39 4 39 4 100 100 W 5 7 29.83 1010 2 4 N/A
7:40 am 07:40 Mostly Cloudy with Light Rain 39 4 39 4 100 100 WNW 6 9 29.83 1010 2 4 N/A
8:08 am 08:08 Mostly Cloudy with Mist and Fog 39 4 39 4 100 100 WNW 5 7 29.83 1010 1 2 N/A
8:20 am 08:20 Mostly Cloudy with Mist and Fog 39 4 39 4 100 100 WNW 5 7 29.86 1011 1 2 N/A
9:20 am 09:20 Mostly Cloudy with Drizzle 41 5 39 4 93 93 W 3 6 29.86 1011 1 2 N/A
10:15 am 10:15 Mostly Cloudy with Mist and Fog 41 5 41 5 100 100 WNW 6 9 29.89 1012 2 3 N/A
10:20 am 10:20 Mostly Cloudy with Mist and Fog 41 5 41 5 100 100 WNW 6 9 29.89 1012 2 4 N/A
10:45 am 10:45 Mostly Cloudy with Drizzle 41 5 41 5 100 100 WNW 6 9 29.92 1013 2 4 N/A
11:20 am 11:20 Mostly Cloudy with Mist and Fog 43 6 41 5 93 93 W 6 9 29.92 1013 3 4 N/A
11:45 am 11:45 Mostly Cloudy 43 6 41 5 93 93 WNW 6 9 29.92 1013 4 6 N/A
12:12 pm 12:12 Mostly Cloudy 43 6 41 5 93 93 WNW 7 11 29.92 1013 30 48 N/A
12:20 pm 12:20 Mostly Cloudy 43 6 41 5 93 93 WNW 8 13 29.92 1013 30 48 N/A
1:20 pm 13:20 Mostly Cloudy 43 6 41 5 93 93 WNW 9 15 29.95 1014 30 48 N/A
1:46 pm 13:46 Mostly Cloudy with Drizzle 43 6 39 4 87 87 WNW 8 13 29.95 1014 2 4 N/A
2:00 pm 14:00 Mostly Cloudy with Drizzle 43 6 41 5 93 93 W 8 13 29.95 1014 5 8 N/A
2:20 pm 14:20 Mostly Cloudy with Drizzle 41 5 41 5 100 100 W 8 13 29.98 1015 5 8 N/A
2:48 pm 14:48 Mostly Cloudy 41 5 41 5 100 100 WNW 10 17 29.98 1015 30 48 N/A
3:20 pm 15:20 Mostly Cloudy 41 5 39 4 93 93 WNW 10 17 30.01 1016 30 48 N/A
4:20 pm 16:20 Mostly Cloudy 41 5 41 5 100 100 W 9 15 30.01 1016 30 48 N/A
5:20 pm 17:20 Mostly Cloudy with Drizzle 41 5 41 5 100 100 WNW 10 17 30.04 1017 30 48 N/A
6:20 pm 18:20 Mostly Cloudy 41 5 37 3 87 87 WNW 10 17 30.07 1018 30 48 N/A
7:20 pm 19:20 Mostly Cloudy 41 5 36 2 81 81 WNW 10 17 30.07 1018 30 48 N/A
8:20 pm 20:20 Mostly Cloudy 41 5 36 2 81 81 WNW 6 9 30.07 1018 30 48 N/A
9:20 pm 21:20 Mostly Cloudy 41 5 36 2 81 81 W 7 11 30.10 1019 30 48 N/A
10:20 pm 22:20 Mostly Cloudy 41 5 37 3 87 87 W 9 15 30.10 1019 30 48 N/A
11:20 pm 23:20 Partly Cloudy 41 5 37 3 87 87 W 12 19 30.10 1019 30 48 N/A

Powered by AerisWeather